Location: ICStars Ranch
(38.8297°N, 93.7687°W)
Time: 18:09:55
(UTC-06:00)

Daily predictions for brighter satellites

Satellite Brightness Start Highest point End
(mag) Time Altitude Azimuth Time Altitude Azimuth Time Altitude Azimuth
Cosmos 1816 Rocket 4.5 17:16:26 10° N 17:22:32 63° E 17:28:37 10° SSE
Meteor 2-10 Rocket 4.5 17:21:00 10° SSW 17:26:04 53° WNW 17:31:23 10° N
Cosmos 1725 Rocket 4.2 17:21:45 10° S 17:28:03 84° W 17:34:21 10° N
CZ-2C R/B 3.4 17:24:48 10° S 17:29:39 55° W 17:34:41 10° NNW
Cosmos 1763 Rocket 3.6 17:24:36 10° N 17:29:42 54° ENE 17:34:43 10° SE
CSL-04 Rocket 3.6 17:24:53 10° SSE 17:30:08 74° ENE 17:35:29 10° N
Cosmos 2082 Rocket 3.2 17:28:14 10° N 17:32:48 24° NE 17:37:19 10° ESE
SJ-12 4.4 17:29:10 10° S 17:33:17 67° W 17:37:25 10° NNW
Cosmos 1340 3.9 17:30:17 10° SSW 17:33:54 44° WNW 17:37:32 10° N
YAOGAN 1 3.2 17:33:38 10° SE 17:37:32 34° ENE 17:41:27 10° N
Meteor 1-25 Rocket 4.5 17:32:06 10° N 17:37:46 49° ENE 17:43:20 10° SSE
USA 116 4.1 17:33:58 10° NNE 17:38:12 45° E 17:41:56 10° S
COSMO-SKYMED 1 3.6 17:34:47 10° NE 17:38:25 26° E 17:42:02 10° SSE
Cosmos 1782 3.7 17:35:10 10° SSE 17:38:38 28° E 17:42:07 10° NNE
GENESIS II 4.2 17:35:10 10° NNW 17:39:06 87° WSW 17:42:59 10° SSE
Cosmos 1814 Rocket 4.0 17:39:12 10° NNW 17:44:35 83° ENE 17:49:56 10° SSE
ERS-2 2.9 17:42:30 10° SE 17:45:43 29° ENE 17:48:56 10° N
Cosmos 405 Rocket 4.3 17:44:08 10° SE 17:46:32 16° E 17:47:47 14° ENE
SL-27 R/B 3.0 17:43:39 10° N 17:46:41 31° ENE 17:49:43 10° SE
Tsikada Rocket 4.3 17:42:46 10° NNW 17:48:54 70° W 17:55:01 10° S
Cosmos 2346 Rocket 4.5 17:46:32 10° N 17:52:42 89° E 17:58:54 10° S
Cosmos 1503 Rocket 4.4 17:47:47 10° S 17:52:44 42° ESE 17:57:39 10° NNE
Cosmos 2221 Rocket 4.2 17:49:56 10° SSE 17:53:53 33° E 17:57:52 10° NNE
MTI 4.1 17:52:19 10° NNE 17:55:25 45° E 17:58:30 10° S
Lacrosse 5 4.2 17:53:56 10° NW 17:55:46 12° NNW 17:57:36 10° N
Cosmos 540 Rocket 4.0 17:51:23 10° N 17:56:07 35° ENE 18:00:49 10° SE
Ariane Rocket 3.3 17:51:42 10° S 17:56:46 71° WSW 18:01:51 10° NNW
Cosmos 1703 Rocket 3.6 17:54:21 10° S 17:58:46 64° E 18:03:11 10° NNE
CZ-2C R/B 3.6 17:55:35 10° NNE 18:00:05 87° ESE 18:04:39 10° SSW
Cosmos 304 Rocket 3.9 17:55:46 10° NNW 18:00:35 79° WSW 18:05:21 10° SSE
USA 234 3.5 17:55:35 13° ENE 18:01:21 52° SE 18:07:40 10° SSW
Cosmos 841 Rocket 3.5 18:00:01 10° NNW 18:05:20 85° ENE 18:10:35 10° SSE
Meteor 1-10 Rocket 4.3 18:03:41 10° S 18:09:10 55° E 18:14:48 10° NNE
Cosmos 1633 2.5 18:09:31 10° N 18:13:10 65° E 18:16:48 10° SSE
Okean 2 Rocket 3.5 18:09:58 10° N 18:14:14 38° ENE 18:18:26 10° SSE
FENGYUN 3A 3.9 18:11:03 10° SE 18:16:09 45° ENE 18:21:17 10° N
Cosmos 44 3.8 18:17:02 10° NNW 18:21:22 35° NE 18:22:54 28° E
Cosmos 1464 Rocket 3.9 18:16:37 10° S 18:22:39 70° E 18:28:46 10° NNE
Cosmos 1908 Rocket 4.3 18:21:13 10° NNW 18:25:27 53° W 18:29:39 10° S
SKYMED 2 3.5 18:22:14 10° NNE 18:26:36 88° WNW 18:30:56 10° SSW
Cosmos 1833 Rocket 2.6 18:23:22 10° NNW 18:28:59 68° ENE 18:34:35 10° SSE
Cosmos 2297 3.7 18:25:29 10° SSW 18:31:12 88° ESE 18:36:13 14° NNE
Cosmos 1354 Rocket 4.0 18:26:01 10° SSW 18:31:18 85° WNW 18:36:22 11° NNE
ALOS 2.2 18:27:32 10° SSE 18:32:09 64° ENE 18:36:47 10° N
SPOT 3 Rocket 3.4 18:28:28 10° SSE 18:33:40 77° ENE 18:38:53 10° N
Cosmos 2278 Rocket 3.7 18:30:52 10° SW 18:36:01 35° WNW 18:41:13 10° N
Meteor 1-11 Rocket 3.8 18:35:11 10° N 18:40:55 54° ENE 18:46:29 10° SSE
CZ-4 R/B 3.7 18:40:08 10° SSW 18:43:21 25° W 18:46:34 10° NW
USA 229 DEB 4.2 18:41:16 10° S 18:47:13 35° ESE 18:47:41 35° ESE
USA 229 4.2 18:41:23 10° S 18:47:20 35° ESE 18:47:43 34° ESE
Cosmos 1441 Rocket 3.1 18:45:03 10° S 18:49:00 83° E 18:49:22 72° NNE
Cosmos 1606 4.5 18:45:44 10° SW 18:49:07 31° WNW 18:52:33 10° NNW
Okean 1-7 4.1 18:47:17 10° SSW 18:51:28 45° W 18:55:43 10° N
Meteor 2-20 Rocket 4.4 18:47:13 10° N 18:53:14 58° E 18:59:11 10° SSE
NOAA 12 4.2 18:49:15 10° S 18:54:33 79° WSW 18:59:54 10° NNW
CZ-4C R/B 2.9 19:00:35 10° NNW 19:07:42 58° NE 19:09:18 49° E
Thor Agena Rocket 3.4 19:08:06 70° SE 19:08:06 70° SE 19:12:57 10° S
Cosmos 2082 Rocket 3.1 19:11:41 10° NW 19:17:07 48° WSW 19:22:30 10° S
MOS 1-B Rocket 4.5 19:10:39 10° SSE 19:17:44 73° ENE 19:26:07 10° N
FengYun 1-2 T 4.4 19:26:21 10° S 19:31:49 71° WSW 19:37:23 10° NNW
Cosmos 44 Rocket 4.1 19:29:52 10° NW 19:33:54 49° W 19:33:54 49° W
Nadezhda 4 Rocket 4.4 19:31:00 10° NNW 19:37:00 59° W 19:42:59 10° S
Cosmos 968 Rocket 4.2 19:33:32 10° SW 19:38:30 50° WNW 19:38:30 50° WNW
USA 234 3.9 19:42:57 41° N 19:44:15 47° NW 19:50:25 10° WSW
Timation 2 Rocket 4.1 19:38:41 10° NNW 19:45:05 75° WNW 19:45:05 75° WNW
CZ-4C R/B 4.4 20:49:37 10° NW 20:54:35 31° W 20:54:35 31° W
